This is the latest recevied weather packets stored in our database for station/object F5ZYU-10. If no packets are shown the sender has not sent any weather packets the latest 1 day(s).
| Time | Temp. | Humidity | Pressure | Rain* | Wind** | Luminosity | Snow |
|---|---|---|---|---|---|---|---|
| 1778089561 | 10.56° C | 74% | 1022 hPa | - | - | - | - |
| 1778088661 | 10.56° C | 74% | 1022 hPa | - | - | - | - |
| 1778087761 | 10.56° C | 74% | 1021.8 hPa | - | - | - | - |
| 1778082361 | 11.11° C | 75% | 1021.5 hPa | - | - | - | - |
| 1778081460 | 11.11° C | 75% | 1021.5 hPa | - | - | - | - |
| 1778080560 | 10.56° C | 76% | 1021.4 hPa | - | - | - | - |
| 1778079660 | 11.11° C | 75% | 1021.3 hPa | - | - | - | - |
| 1778073361 | 11.11° C | 77% | 1021.1 hPa | - | - | - | - |
| 1778072461 | 11.11° C | 78% | 1021.1 hPa | - | - | - | - |
| 1778071561 | 11.11° C | 79% | 1021.1 hPa | - | - | - | - |
| 1778066160 | 10° C | 83% | 1021.1 hPa | - | - | - | - |
| 1778065260 | 9.44° C | 84% | 1021.2 hPa | - | - | - | - |
| 1778064360 | 9.44° C | 84% | 1021.2 hPa | - | - | - | - |
| 1778063460 | 8.89° C | 84% | 1021.2 hPa | - | - | - | - |
| 1778062560 | 8.89° C | 85% | 1021.1 hPa | - | - | - | - |
| 1778059859 | 7.78° C | 86% | 1021.1 hPa | - | - | - | - |
| 1778058959 | 7.22° C | 86% | 1021 hPa | - | - | - | - |
| 1778058059 | 7.22° C | 86% | 1020.9 hPa | - | - | - | - |
| 1778057159 | 7.22° C | 86% | 1020.7 hPa | - | - | - | - |
| 1778054461 | 6.67° C | 86% | 1020.7 hPa | - | - | - | - |
| 1778049060 | 6.11° C | 85% | 1020.6 hPa | - | - | - | - |
| 1778048160 | 5.56° C | 85% | 1020.5 hPa | - | - | - | - |
| 1778047260 | 5.56° C | 84% | 1020.5 hPa | - | - | - | - |
| 1778046360 | 6.11° C | 84% | 1020.4 hPa | - | - | - | - |
| 1778042759 | 6.11° C | 84% | 1020.2 hPa | - | - | - | - |
* Rain since midnight (hover to see other rain measurements)
** Current wind speed in m/s (hover to see current wind gust speed)